Hourly Data Report for January 31, 2005

TORONTO CITY
ONTARIO

43°40'00.000" N
79°24'00.000" W
112.50 m
6158355
71508
XTO

Download Data

Hourly Data (January 2005)
Hourly Data Report for January 31, 2005
TIME
LST
Temp Definition
°C
Dew Point Definition
°C
Rel Hum Definition
%
Precip. Amount Definition
mm

Wind Dir Definition
10's deg

Wind Spd Definition
km/h
Visibility Definition
km
Stn Press Definition
kPa
Hmdx Definition


Wind Chill Definition


Weather Definition


00:00 -5.0 -7.8 81   LegendMM LegendMM   101.36     LegendNANA
01:00 -5.1 -8.8 75   LegendMM LegendMM   101.38     LegendNANA
02:00 -5.6 -10.5 68   LegendMM LegendMM   101.40     LegendNANA
03:00 -5.6 -11.8 62   LegendMM LegendMM   101.44     LegendNANA
04:00 -5.7 -12.7 58   LegendMM LegendMM   101.43     LegendNANA
05:00 -6.2 -13.2 58   LegendMM LegendMM   101.46     LegendNANA
06:00 -6.6 -14.1 55   LegendMM LegendMM   101.52     LegendNANA
07:00 -6.5 -13.2 59   LegendMM LegendMM   101.57     LegendNANA
08:00 -6.4 -13.3 58   LegendMM LegendMM   101.64     LegendNANA
09:00 -5.1 -11.8 59   LegendMM LegendMM   101.65     LegendNANA
10:00 -3.4 -9.4 63   LegendMM LegendMM   101.68     LegendNANA
11:00 -0.9 -6.6 65   LegendMM LegendMM   101.69     LegendNANA
12:00 -1.0 -5.6 71   LegendMM LegendMM   101.64     LegendNANA
13:00 -0.7 -5.7 69   LegendMM LegendMM   101.57     LegendNANA
14:00 -1.2 -5.7 71   LegendMM LegendMM   101.54     LegendNANA
15:00 -1.5 -5.6 74   LegendMM LegendMM   101.50     LegendNANA
16:00 -1.9 -6.0 74   LegendMM LegendMM   101.50     LegendNANA
17:00 -2.6 -5.9 78   LegendMM LegendMM   101.50     LegendNANA
18:00 -2.7 -6.3 76   LegendMM LegendMM   101.48     LegendNANA
19:00 -3.1 -6.9 75   LegendMM LegendMM   101.48     LegendNANA
20:00 -3.4 -7.6 73   LegendMM LegendMM   101.48     LegendNANA
21:00 -3.4 -8.1 70   LegendMM LegendMM   101.48     LegendNANA
22:00 -3.6 -8.5 69   LegendMM LegendMM   101.49     LegendNANA
23:00 -4.1 -8.2 73   LegendMM LegendMM   101.50     LegendNANA

Notes on Data Quality.

Legend

  • E = Estimated
  • M = Missing
  • NA = Not Available*
  • [empty] = Indicates an unobserved value
Date modified: